• Join FlightAware (Why Join?)
  • Login
  • US Flag 
03:10PM EDT


 

Airport Tracker/Info


-or-


 

Live Flight TrackerFlight Track Log ✈ WIG7407 ✈ 12-Sep-2013 ✈ KPBG - KALB

Flight Track Log - Related Links

Times and Time Zones

All times are in EDT time to prevent confusion due to time zone crossing. See the WIG7407 flight status page for this flight to view local times or setup timezone preferences in your user account.

Time Position Orientation Groundspeed Altitude Reporting Facility
EDT Latitude Longitude Course Direction KTS MPH feet Rate Location/Type
07:58PM 44.4204 -73.5098 189° South  Level Estimated
07:59PM 44.3819 -73.5165 187° South  Level FlightAware Approximate
08:00PM 44.3435 -73.5232 187° South  Level FlightAware Approximate
08:01PM 44.3050 -73.5299 187° South  Level FlightAware Approximate
08:02PM 44.2666 -73.5366 187° South  Level FlightAware Approximate
08:03PM 44.2281 -73.5433 187° South  Level FlightAware Approximate
08:04PM 44.1897 -73.5500 187° South  Level FlightAware Approximate
08:05PM 44.1512 -73.5566 187° South  Level FlightAware Approximate
08:06PM 44.1128 -73.5635 187° South  Level Estimated
08:07PM 44.0743 -73.5699 187° South  Level FlightAware Approximate
08:07PM 44.1378 -73.5017 187° South 146 168 8,000  Level Boston Center
08:08PM 44.0359 -73.5763 187° South  Level FlightAware Approximate
08:08PM 44.0981 -73.5097 188° South 141 162 8,000  Level Boston Center
08:09PM 43.9974 -73.5827 187° South  Level FlightAware Approximate
08:09PM 44.0625 -73.5178 189° South 141 162 8,000  Level Boston Center
08:10PM 43.9589 -73.5891 187° South  Level FlightAware Approximate
08:10PM 44.0311 -73.5258 190° South 141 162 8,000  Level Boston Center
08:11PM 43.9204 -73.5954 187° South  Level FlightAware Approximate
08:11PM 43.9914 -73.5339 188° South 146 168 8,000  Level Boston Center
08:12PM 43.9561 -73.5417 189° South 146 168 8,000  Level Boston Center
08:13PM 43.9183 -73.5525 192° South 146 168 8,000  Level Boston Center
08:14PM 43.8808 -73.5606 189° South 140 161 8,000  Level Boston Center
08:15PM 43.8453 -73.5686 189° South 140 161 8,000  Level Boston Center
08:16PM 43.8056 -73.5764 188° South 140 161 8,000  Level Boston Center
08:17PM 43.7700 -73.5844 189° South 140 161 8,000  Level Boston Center
08:18PM 43.7347 -73.5922 189° South 140 161 8,000  Level Boston Center
08:19PM 43.7011 -73.6031 193° South 135 155 8,000  Level Boston Center
08:20PM 43.6678 -73.6053 183° South 135 155 8,000  Level Boston Center
08:21PM 43.6322 -73.6133 189° South 135 155 8,000  Level Boston Center
08:21PM 43.6178 -73.6186 195° South 128 147 8,000  Level Boston Center
08:21PM 43.6156 -73.6186 180° South 127 146 8,000  Level Boston Center
08:22PM 43.5967 -73.6211 185° South 140 161 8,000  Level Boston Center
08:22PM 43.5800 -73.6267 194° South 129 148 8,000  Level Boston Center
08:23PM 43.5592 -73.6319 190° South 140 161 8,000  Level Boston Center
08:23PM 43.5444 -73.6344 187° South 136 157 8,000  Level Boston Center
08:24PM 43.5236 -73.6369 185° South 140 161 8,000  Level Boston Center
08:24PM 43.5028 -73.6450 196° South 134 154 8,000  Level Boston Center
08:25PM 43.4861 -73.6447 179° South 140 161 8,000  Level Boston Center
08:25PM 43.4672 -73.6531 198° South 130 150 8,000  Level Boston Center
08:26PM 43.4506 -73.6556 186° South 140 161 8,000  Level Boston Center
08:26PM 43.4339 -73.6581 186° South 130 150 8,000  Level Boston Center
08:27PM 43.4150 -73.6606 185° South 140 161 8,000  Level Boston Center
08:27PM 43.3983 -73.6658 193° South 128 147 8,000  Level Boston Center
08:28PM 43.3794 -73.6711 191° South 140 161 8,000 -300 Level Boston Center
08:28PM 43.3650 -73.6767 196° South 128 147 7,700  Descending Boston Center
08:29PM 43.3356 -73.6847 191° South 150 173 8,000 -1,140 Climbing Boston Center
08:29PM 43.3189 -73.6900 193° South 178 205 6,500 -1,920 Descending Boston Center
08:30PM 43.2939 -73.6953 189° South 164 189 6,100 -840 Descending Boston Center
08:30PM 43.2686 -73.7006 189° South 170 196 5,700 -900 Descending Boston Center
08:31PM 43.2436 -73.7114 198° South 169 194 5,200 -720 Descending Boston Center
08:31PM 43.2228 -73.7194 196° South 172 198 5,000 -660 Descending Boston Center
08:32PM 43.2017 -73.7247 190° South 169 194 4,600 -780 Descending Boston Center
08:32PM 43.1725 -73.7356 195° South 170 196 4,200 -600 Descending Boston Center
08:33PM 43.1517 -73.7406 190° South 175 201 4,000 -120 Descending Boston Center
08:33PM 43.1222 -73.7514 195° South 159 183 4,100 60 Climbing Boston Center
08:34PM 43.1139 -73.7511 179° South 165 190 4,100  Level Boston Center
08:34PM 43.0825 -73.7647 198° South 142 163 4,100 -420 Level Boston Center
08:35PM 43.0700 -73.7672 188° South 149 171 3,700 -1,200 Descending Boston Center
08:35PM 43.0428 -73.7781 196° South 168 193 3,000 -840 Descending Boston Center
08:36PM 43.0281 -73.7806 187° South 160 184 2,900  Descending Boston Center
08:36PM 42.9967 -73.7942 198° South 170 196 3,000 60 Climbing Boston Center
08:37PM 42.9550 -73.8047 191° South 148 170 3,000 -120 Level Boston Center
08:38PM 42.9131 -73.8178 193° South 154 177 2,800 -600 Descending Boston Center
08:39PM 42.8631 -73.8139 177° South 187 215 1,900 -660 Descending Boston Center
08:40PM 42.8172 -73.8100 176° South 169 194 1,500 -600 Descending Boston Center
08:41PM 42.7756 -73.8064 176° South 137 158 700 -780 Descending Boston Center
08:43PM 42.7491 -73.8020 190° South  Level Estimated
08:50PM 42.7491 -73.8020 190° South  Level Estimated
08:51PM 42.7491 -73.8020 190° South  Level Estimated
08:52PM 42.7491 -73.8020 190° South  Level Estimated